Location: Bridalveil Moraine
(37.7171°N, 119.6568°W)
Time: 08:16:19
(UTC+00:00)

Cosmos-2242 - Pass Details

Date: 13 June 2024
Orbit: 578 x 604 km, 82.5° (Epoch: 18 July)

Event Time Altitude Azimuth Distance (km) Brightness Sun altitude
Rises 11:58:35 0° 354° (N) 2,865 6.9 -7.0°
Reaches altitude 10° 12:00:49 10° 356° (N) 1,955 6.1 -6.7°
Maximum altitude 12:05:09 76° 83° (E) 622 3.2 -6.0°
Drops below altitude 10° 12:09:25 10° 169° (S) 1,926 5.4 -5.3°
Sets 12:11:36 0° 171° (S) 2,819 6.2 -5.0°
